DW8453 Bekkjarvik NO current weather conditions

sailwx.info

Wind from 193 at 13 knots gusting 12

Air temperature 13.3° C
Dewpoint 11.0° C

Last reported at 2015-Aug-28 22:12 UTC.
Time now 2015-Aug-30 13:59 UTC

Location: N 60°01' E 005°12'.
View on Google Maps.

See reports from other nearby stations

  
Tides and Currents Weather Stations Pressure Air Temp Water Temp Dewpoint Dewpoint Depression Visibility Wind Speed Wind Dir Waves Ship Positions
date/time (UTC)wind fromknots sea level pressurealtimeterstation pressurevisibilityair tempwater tempwave heightnotes
2015-Aug-28 22:12 193 13 gusting 12 13.3
2015-Aug-28 22:07 204 13 gusting 12 13.3
2015-Aug-28 22:02 215 13 gusting 12 13.3
2015-Aug-28 21:57 205 10 gusting 12 13.3
2015-Aug-28 21:52 209 11 gusting 8 13.3
2015-Aug-28 21:47 214 6 gusting 7 13.3
2015-Aug-28 21:42 218 9 gusting 10 13.3
2015-Aug-28 21:37 -0.0
2015-Aug-28 21:32 206 10 gusting 7 13.3
2015-Aug-28 21:27 211 7 gusting 7 13.3
2015-Aug-28 21:22 223 8 gusting 10 13.3
2015-Aug-28 21:17 230 8 gusting 8 13.3
2015-Aug-28 21:12 209 5 gusting 6 13.3
2015-Aug-28 21:07 263 6 gusting 7 13.3
2015-Aug-28 21:02 206 6 gusting 6 13.9
2015-Aug-28 20:57 222 6 gusting 8 13.9
2015-Aug-28 20:52 256 7 gusting 7 13.9
2015-Aug-28 20:47 231 6 gusting 6 13.9
2015-Aug-28 20:42 219 8 gusting 10 13.9
2015-Aug-28 20:37 239 6 gusting 10 13.9
2015-Aug-28 20:32 236 6 gusting 8 13.9
2015-Aug-28 20:27 227 6 gusting 8 13.9
2015-Aug-28 20:22 220 10 gusting 8 13.9
2015-Aug-28 20:17 242 6 gusting 7 14.4
2015-Aug-28 20:12 221 8 gusting 7 14.4
2015-Aug-28 20:07 232 6 gusting 8 14.4
2015-Aug-28 20:02 230 11 gusting 8 13.9
2015-Aug-28 19:57 225 10 gusting 10 13.9
2015-Aug-28 19:52 227 7 gusting 7 13.9
2015-Aug-28 19:47 241 11 gusting 10 13.9
2015-Aug-28 19:42 230 6 gusting 6 13.9
2015-Aug-28 19:37 225 7 gusting 6 13.9
2015-Aug-28 19:32 221 6 gusting 6 13.9
2015-Aug-28 19:27 233 6 gusting 8 13.9
2015-Aug-28 19:22 233 4 gusting 7 13.9
2015-Aug-28 19:17 218 8 gusting 6 14.4
2015-Aug-28 19:12 222 6 gusting 6 14.4
2015-Aug-28 19:07 222 7 gusting 7 14.4
2015-Aug-28 19:02 217 8 gusting 7 14.4
2015-Aug-28 18:57 212 6 gusting 8 14.4
2015-Aug-28 18:52 231 5 gusting 6 15.0
2015-Aug-28 18:47 235 7 gusting 7 15.0
2015-Aug-28 18:42 229 11 gusting 11 15.0
2015-Aug-28 18:37 224 7 gusting 11 15.0